Meteo Giornale » Osservazioni meteo Italia » Venezia-Tessera

ore: 09:50 - Osservazioni Meteo Venezia-Tessera
Lat. 45° 30' N Lon. 12° 20' E Alt. 2 metri s.l.m.

sereno Europe/Rome

22 °C

Sereno

Temp. 24 Ore

19 °C

26 °C

Est/Nord-Est

7.4 Km/h

Dew point 19 °C

Umidità 83 %

Visibilità  7 Km

Il sole sorge alle ore 05:28

Il sole tramonta alle ore 20:46

Data e Ora Cielo e Fenomeni T °C DP °C Um. % Pres. hPa Vis. km Vento km/h
Oggi h: 09:50 sereno Sereno 22 19 83 1017 7 E/NE 7.4
Oggi h: 09:20 sereno Sereno 21 18 82 1016 6 N/NE 7.4
Oggi h: 08:50 sereno Sereno 21 18 82 1016 6 NE 7.4
Oggi h: 08:20 sereno Sereno 20 17 82 1016 6 NE 9.3
Oggi h: 07:50 poco_nuvoloso Poco Nuvoloso 20 17 82 1016 6 N 11.1
Oggi h: 07:20 sereno Sereno 20 16 77 1016 6 NE 13
Oggi h: 06:50 sereno Sereno 20 16 77 1016 6 N 13
Oggi h: 06:20 sereno Sereno 20 16 77 1016 6 N/NE 11.1
Oggi h: 05:50 sereno Sereno 19 17 88 1016 6 N 11.1
Oggi h: 05:20 sereno Sereno 19 16 82 1016 7 N 13
Oggi h: 04:50 sereno Sereno 21 17 77 1016 10 N 13
Oggi h: 04:20 sereno Sereno 20 17 82 1016 10 E/NE 13
Oggi h: 03:50 sereno Sereno 21 18 82 1016 10 N/NE 13
Oggi h: 03:20 sereno Sereno 21 17 77 1016 10 E/NE 13
Oggi h: 02:50 sereno Sereno 22 17 73 1016 10 E/NE 18.5
Oggi h: 02:20 sereno Sereno 22 18 78 1016 10 E/NE 22.2
Oggi h: 01:50 sereno Sereno 22 18 78 1017 10 E/NE 20.3
Oggi h: 01:20 sereno Sereno 21 17 77 1017 10 NE 18.5
Oggi h: 00:50 sereno Sereno 22 19 83 1017 10 E 7.4
Oggi h: 00:20 sereno Sereno 21 19 88 1016 10 E/SE 11.1
Ieri h: 23:50 sereno Sereno 22 19 83 1016 10 E/SE 11.1
Ieri h: 23:20 sereno Sereno 22 18 78 1016 10 SE 13
Ieri h: 22:50 sereno Sereno 22 19 83 1016 10 SE 14.8
Ieri h: 22:20 sereno Sereno 22 19 83 1016 10 E/SE 13
Ieri h: 21:50 sereno Sereno 22 18 78 1015 10 E/SE 13
Ieri h: 21:20 sereno Sereno 22 18 78 1015 10 SE 13
Ieri h: 20:50 sereno Sereno 22 18 78 1015 10 SE 13
Ieri h: 20:20 sereno Sereno 22 18 78 1015 10 SE 14.8
Ieri h: 19:50 sereno Sereno 23 18 73 1014 10 SE 18.5
Ieri h: 19:20 sereno Sereno 23 17 68 1014 10 S/SE 14.8
Ieri h: 18:50 sereno Sereno 24 16 60 1014 10 S/SE 14.8
Ieri h: 18:20 sereno Sereno 24 17 64 1014 10 SE 14.8
Ieri h: 17:50 sereno Sereno 25 17 61 1014 10 SE 16.7
Ieri h: 17:20 sereno Sereno 25 18 65 1014 10 SE 20.3
Ieri h: 16:50 sereno Sereno 26 18 61 1014 10 SE 16.7
Ieri h: 16:20 sereno Sereno 26 16 54 1015 10 S/SE 14.8
Ieri h: 15:50 sereno Sereno 26 17 57 1015 10 SE 16.7
Ieri h: 15:20 sereno Sereno 26 16 54 1015 10 SE 14.8
Ieri h: 14:50 sereno Sereno 25 15 53 1016 10 SE 14.8
Ieri h: 14:20 sereno Sereno 25 15 53 1016 10 S/SE 13
Ieri h: 13:50 sereno Sereno 24 15 57 1016 10 SE 14.8
Ieri h: 13:20 sereno Sereno 24 15 57 1016 10 SE 16.7
Ieri h: 12:50 sereno Sereno 24 15 57 1017 10 SE 14.8
Ieri h: 12:20 sereno Sereno 24 15 57 1017 10 SE 14.8
Ieri h: 11:50 sereno Sereno 23 15 60 1017 10 SE 13
Ieri h: 11:20 sereno Sereno 23 16 64 1017 10 SE 13
Ieri h: 10:50 sereno Sereno 23 14 56 1017 10 S/SE 9.3
Ieri h: 10:20 sereno Sereno 22 15 64 1017 10 E 9.3
Ieri h: 09:50 sereno Sereno 23 14 56 1016 10 N 5.5